Time,TemperatureF,DewpointF,PressureIn,WindDirection,WindDirectionDegrees,WindSpeedMPH,WindSpeedGustMPH,Humidity,HourlyPrecipIn,Conditions,Clouds,dailyrainin,SoftwareType,DateUTC
2013-03-06 00:00:00,34.6,31.7,30.07,NE,44,0.0,0.0,89,0.00,,---,0.00,VWS V14.01,2013-03-06 05:00:00,
2013-03-06 00:05:00,34.6,31.7,30.07,NE,44,0.0,0.0,89,0.00,,---,0.00,VWS V14.01,2013-03-06 05:05:00,
2013-03-06 00:10:00,34.6,32.0,30.07,NE,44,0.0,0.0,90,0.00,,---,0.00,VWS V14.01,2013-03-06 05:10:00,
2013-03-06 00:15:00,34.6,32.0,30.07,NE,44,0.0,1.0,90,0.00,,---,0.00,VWS V14.01,2013-03-06 05:15:00,
2013-03-06 00:20:00,34.5,31.9,30.06,NE,44,0.0,1.0,90,0.00,,---,0.00,VWS V14.01,2013-03-06 05:20:00,
2013-03-06 00:25:00,34.6,32.0,30.06,NE,44,0.0,1.0,90,0.00,,---,0.00,VWS V14.01,2013-03-06 05:25:00,
2013-03-06 00:30:00,34.6,32.0,30.06,NE,44,0.0,2.0,90,0.00,,---,0.00,VWS V14.01,2013-03-06 05:30:00,
2013-03-06 00:35:00,34.7,32.3,30.06,NE,40,0.0,5.0,91,0.00,,---,0.00,VWS V14.01,2013-03-06 05:35:00,
2013-03-06 00:40:00,34.9,32.5,30.06,ENE,73,0.0,1.0,91,0.00,,---,0.00,VWS V14.01,2013-03-06 05:40:00,
2013-03-06 00:45:00,35.1,33.0,30.06,ENE,73,0.0,1.0,92,0.00,,---,0.00,VWS V14.01,2013-03-06 05:45:00,
2013-03-06 00:50:00,35.2,33.1,30.06,NNE,23,0.0,2.0,92,0.00,,---,0.00,VWS V14.01,2013-03-06 05:50:00,
2013-03-06 00:55:00,35.2,33.1,30.06,NNW,339,0.0,3.0,92,0.00,,---,0.00,VWS V14.01,2013-03-06 05:55:00,
2013-03-06 01:00:00,35.2,33.1,30.06,NE,40,0.0,3.0,92,0.00,,---,0.00,VWS V14.01,2013-03-06 06:00:00,
2013-03-06 01:05:00,35.2,33.1,30.06,ESE,112,0.0,1.0,92,0.00,,---,0.00,VWS V14.01,2013-03-06 06:05:00,
2013-03-06 01:10:00,35.0,32.9,30.06,ENE,71,0.0,2.0,92,0.00,,---,0.00,VWS V14.01,2013-03-06 06:10:00,
2013-03-06 01:15:00,34.9,32.8,30.06,NNE,13,0.0,4.0,92,0.00,,---,0.00,VWS V14.01,2013-03-06 06:15:00,
2013-03-06 01:20:00,34.7,32.6,30.06,NNE,13,0.0,2.0,92,0.00,,---,0.00,VWS V14.01,2013-03-06 06:20:00,
2013-03-06 01:25:00,34.6,32.5,30.06,NNE,13,0.0,2.0,92,0.00,,---,0.00,VWS V14.01,2013-03-06 06:25:00,
2013-03-06 01:30:00,34.4,32.3,30.05,NNE,15,0.0,2.0,92,0.00,,---,0.00,VWS V14.01,2013-03-06 06:30:00,
2013-03-06 01:35:00,34.3,32.2,30.05,NNE,15,0.0,1.0,92,0.00,,---,0.00,VWS V14.01,2013-03-06 06:35:00,
2013-03-06 01:40:00,34.2,32.1,30.06,SW,234,0.0,1.0,92,0.00,,---,0.00,VWS V14.01,2013-03-06 06:40:00,
2013-03-06 01:45:00,34.2,32.4,30.06,SW,234,0.0,0.0,93,0.00,,---,0.00,VWS V14.01,2013-03-06 06:45:00,
2013-03-06 01:50:00,34.2,32.4,30.06,SW,235,0.0,2.0,93,0.00,,---,0.00,VWS V14.01,2013-03-06 06:50:00,
2013-03-06 01:55:00,34.2,32.4,30.06,North,351,0.0,3.0,93,0.00,,---,0.00,VWS V14.01,2013-03-06 06:55:00,
2013-03-06 02:00:00,34.3,32.5,30.06,NNW,346,0.0,3.0,93,0.00,,---,0.00,VWS V14.01,2013-03-06 07:00:00,
2013-03-06 02:05:00,34.2,32.4,30.05,NW,325,0.0,1.0,93,0.00,,---,0.00,VWS V14.01,2013-03-06 07:05:00,
2013-03-06 02:10:00,34.2,32.4,30.05,SE,143,0.0,3.0,93,0.00,,---,0.00,VWS V14.01,2013-03-06 07:10:00,
2013-03-06 02:15:00,34.2,32.7,30.05,NW,308,0.0,2.0,94,0.00,,---,0.00,VWS V14.01,2013-03-06 07:15:00,
2013-03-06 02:20:00,34.3,32.8,30.05,ENE,64,1.0,2.0,94,0.00,,---,0.00,VWS V14.01,2013-03-06 07:20:00,
2013-03-06 02:25:00,34.4,32.9,30.05,NNE,25,0.0,2.0,94,0.00,,---,0.00,VWS V14.01,2013-03-06 07:25:00,
2013-03-06 02:30:00,34.5,33.0,30.05,NE,49,2.0,3.0,94,0.00,,---,0.00,VWS V14.01,2013-03-06 07:30:00,
2013-03-06 02:35:00,34.5,33.0,30.05,NNW,339,0.0,2.0,94,0.00,,---,0.00,VWS V14.01,2013-03-06 07:35:00,
2013-03-06 02:40:00,34.5,33.0,30.05,NNW,339,0.0,1.0,94,0.00,,---,0.00,VWS V14.01,2013-03-06 07:40:00,
2013-03-06 02:45:00,34.5,33.0,30.05,NW,308,0.0,2.0,94,0.00,,---,0.00,VWS V14.01,2013-03-06 07:45:00,
2013-03-06 02:50:00,34.7,33.2,30.05,ENE,75,0.0,2.0,94,0.00,,---,0.00,VWS V14.01,2013-03-06 07:50:00,
2013-03-06 02:55:00,34.8,33.2,30.05,ENE,75,0.0,0.0,94,0.00,,---,0.00,VWS V14.01,2013-03-06 07:55:00,
2013-03-06 03:00:00,34.8,33.2,30.05,ENE,75,0.0,1.0,94,0.01,,---,0.01,VWS V14.01,2013-03-06 08:00:00,
2013-03-06 03:05:00,34.8,33.2,30.06,ENE,75,0.0,0.0,94,0.01,,---,0.01,VWS V14.01,2013-03-06 08:05:00,
2013-03-06 03:10:00,34.9,33.3,30.06,ENE,75,0.0,1.0,94,0.01,,---,0.01,VWS V14.01,2013-03-06 08:10:00,
2013-03-06 03:15:00,35.0,33.5,30.06,ENE,75,0.0,0.0,94,0.01,,---,0.01,VWS V14.01,2013-03-06 08:15:00,
2013-03-06 03:20:00,35.1,33.5,30.06,East,100,0.0,1.0,94,0.01,,---,0.01,VWS V14.01,2013-03-06 08:20:00,
2013-03-06 03:25:00,35.1,33.5,30.06,East,100,0.0,0.0,94,0.01,,---,0.01,VWS V14.01,2013-03-06 08:25:00,
2013-03-06 03:30:00,35.2,33.7,30.06,East,100,0.0,1.0,94,0.01,,---,0.01,VWS V14.01,2013-03-06 08:30:00,
2013-03-06 03:35:00,35.3,34.0,30.06,East,100,0.0,1.0,95,0.01,,---,0.01,VWS V14.01,2013-03-06 08:35:00,
2013-03-06 03:40:00,35.3,34.0,30.07,ESE,113,1.0,2.0,95,0.01,,---,0.01,VWS V14.01,2013-03-06 08:40:00,
2013-03-06 03:45:00,35.5,34.2,30.07,East,101,0.0,2.0,95,0.01,,---,0.01,VWS V14.01,2013-03-06 08:45:00,
2013-03-06 03:50:00,35.6,34.3,30.07,East,101,0.0,1.0,95,0.02,,---,0.02,VWS V14.01,2013-03-06 08:50:00,
2013-03-06 03:55:00,35.7,34.4,30.07,ESE,102,0.0,3.0,95,0.02,,---,0.02,VWS V14.01,2013-03-06 08:55:00,
2013-03-06 04:00:00,35.7,34.4,30.07,NNW,330,0.0,3.0,95,0.02,,---,0.02,VWS V14.01,2013-03-06 09:00:00,
2013-03-06 04:05:00,35.8,34.5,30.07,East,90,1.0,3.0,95,0.01,,---,0.02,VWS V14.01,2013-03-06 09:05:00,
2013-03-06 04:10:00,35.8,34.5,30.07,NE,45,0.0,3.0,95,0.01,,---,0.02,VWS V14.01,2013-03-06 09:10:00,
2013-03-06 04:15:00,35.9,34.6,30.07,NNE,30,0.0,2.0,95,0.02,,---,0.03,VWS V14.01,2013-03-06 09:15:00,
2013-03-06 04:20:00,35.9,34.6,30.07,East,79,0.0,4.0,95,0.02,,---,0.03,VWS V14.01,2013-03-06 09:20:00,
2013-03-06 04:25:00,35.9,34.6,30.07,NE,56,0.0,4.0,95,0.02,,---,0.03,VWS V14.01,2013-03-06 09:25:00,
2013-03-06 04:30:00,35.8,34.2,30.07,NNE,14,2.0,4.0,94,0.02,,---,0.03,VWS V14.01,2013-03-06 09:30:00,
2013-03-06 04:35:00,35.7,34.2,30.07,SE,138,0.0,6.0,94,0.03,,---,0.04,VWS V14.01,2013-03-06 09:35:00,
2013-03-06 04:40:00,35.7,34.2,30.07,SE,139,2.0,5.0,94,0.03,,---,0.04,VWS V14.01,2013-03-06 09:40:00,
2013-03-06 04:45:00,36.0,34.4,30.07,ESE,115,2.0,3.0,94,0.01,,---,0.05,VWS V14.01,2013-03-06 09:45:00,
2013-03-06 04:50:00,35.7,34.2,30.07,ESE,111,1.0,4.0,94,0.03,,---,0.04,VWS V14.01,2013-03-06 09:50:00,
2013-03-06 04:55:00,35.8,34.2,30.07,ESE,104,2.0,3.0,94,0.02,,---,0.04,VWS V14.01,2013-03-06 09:55:00,
2013-03-06 05:00:00,35.8,34.2,30.07,East,88,0.0,4.0,94,0.02,,---,0.04,VWS V14.01,2013-03-06 10:00:00,
2013-03-06 05:05:00,35.9,34.3,30.07,East,87,0.0,3.0,94,0.02,,---,0.04,VWS V14.01,2013-03-06 10:05:00,
2013-03-06 05:10:00,35.9,34.3,30.07,ESE,107,2.0,5.0,94,0.02,,---,0.04,VWS V14.01,2013-03-06 10:10:00,
2013-03-06 05:15:00,36.0,34.4,30.07,NE,44,0.0,4.0,94,0.02,,---,0.04,VWS V14.01,2013-03-06 10:15:00,
2013-03-06 05:20:00,36.0,34.4,30.07,ESE,102,0.0,4.0,94,0.01,,---,0.04,VWS V14.01,2013-03-06 10:20:00,
2013-03-06 05:25:00,36.0,34.4,30.07,ESE,106,0.0,3.0,94,0.01,,---,0.04,VWS V14.01,2013-03-06 10:25:00,
2013-03-06 05:30:00,36.0,34.4,30.07,ESE,115,0.0,5.0,94,0.02,,---,0.05,VWS V14.01,2013-03-06 10:30:00,
2013-03-06 05:35:00,36.0,34.4,30.07,ESE,116,3.0,5.0,94,0.02,,---,0.05,VWS V14.01,2013-03-06 10:35:00,
2013-03-06 05:40:00,36.1,34.5,30.07,SSE,149,0.0,4.0,94,0.01,,---,0.05,VWS V14.01,2013-03-06 10:40:00,
2013-03-06 05:45:00,36.0,34.4,30.07,ESE,115,2.0,3.0,94,0.01,,---,0.05,VWS V14.01,2013-03-06 10:45:00,
2013-03-06 05:50:00,36.1,34.5,30.07,NNE,13,0.0,4.0,94,0.01,,---,0.05,VWS V14.01,2013-03-06 10:50:00,
2013-03-06 05:55:00,36.0,34.4,30.07,ESE,121,3.0,6.0,94,0.01,,---,0.05,VWS V14.01,2013-03-06 10:55:00,
2013-03-06 06:00:00,36.0,34.4,30.07,ESE,105,0.0,11.0,94,0.01,,---,0.05,VWS V14.01,2013-03-06 11:00:00,
2013-03-06 06:05:00,36.0,34.4,30.07,ESE,106,0.0,5.0,94,0.01,,---,0.05,VWS V14.01,2013-03-06 11:05:00,
2013-03-06 06:10:00,36.0,34.4,30.07,SE,129,1.0,5.0,94,0.01,,---,0.05,VWS V14.01,2013-03-06 11:10:00,
2013-03-06 06:15:00,36.0,34.4,30.07,ESE,119,0.0,3.0,94,0.01,,---,0.05,VWS V14.01,2013-03-06 11:15:00,
2013-03-06 06:20:00,36.1,34.5,30.07,SE,133,3.0,3.0,94,0.01,,---,0.05,VWS V14.01,2013-03-06 11:20:00,
2013-03-06 06:25:00,36.1,34.5,30.07,SE,127,1.0,3.0,94,0.01,,---,0.05,VWS V14.01,2013-03-06 11:25:00,
2013-03-06 06:30:00,36.1,34.5,30.07,SE,125,2.0,6.0,94,0.01,,---,0.05,VWS V14.01,2013-03-06 11:30:00,
2013-03-06 06:35:00,36.1,34.5,30.08,East,79,0.0,6.0,94,0.01,,---,0.06,VWS V14.01,2013-03-06 11:35:00,
2013-03-06 06:40:00,36.1,34.5,30.08,SE,142,4.0,12.0,94,0.01,,---,0.06,VWS V14.01,2013-03-06 11:40:00,
2013-03-06 06:45:00,36.1,34.5,30.08,ESE,114,1.0,9.0,94,0.01,,---,0.06,VWS V14.01,2013-03-06 11:45:00,
2013-03-06 06:50:00,36.2,34.6,30.08,SE,140,4.0,9.0,94,0.01,,---,0.06,VWS V14.01,2013-03-06 11:50:00,
2013-03-06 06:55:00,36.2,34.6,30.09,South,177,1.0,5.0,94,0.01,,---,0.06,VWS V14.01,2013-03-06 11:55:00,
2013-03-06 07:00:00,36.4,34.8,30.09,ESE,102,0.0,7.0,94,0.01,,---,0.06,VWS V14.01,2013-03-06 12:00:00,
2013-03-06 07:05:00,36.4,34.8,30.09,SE,142,2.0,4.0,94,0.01,,---,0.06,VWS V14.01,2013-03-06 12:05:00,
2013-03-06 07:10:00,36.5,34.9,30.09,North,11,1.0,11.0,94,0.01,,---,0.06,VWS V14.01,2013-03-06 12:10:00,
2013-03-06 07:15:00,36.6,35.0,30.09,ESE,111,4.0,11.0,94,0.01,,---,0.06,VWS V14.01,2013-03-06 12:15:00,
2013-03-06 07:20:00,36.6,34.8,30.10,SE,134,3.0,7.0,93,0.02,,---,0.07,VWS V14.01,2013-03-06 12:20:00,
2013-03-06 07:25:00,36.6,34.8,30.10,East,93,4.0,9.0,93,0.02,,---,0.07,VWS V14.01,2013-03-06 12:25:00,
2013-03-06 07:30:00,36.6,34.8,30.10,ESE,114,3.0,6.0,93,0.02,,---,0.07,VWS V14.01,2013-03-06 12:30:00,
2013-03-06 07:35:00,36.5,34.7,30.10,ESE,113,4.0,9.0,93,0.02,,---,0.07,VWS V14.01,2013-03-06 12:35:00,
2013-03-06 07:40:00,36.5,34.7,30.11,SE,124,1.0,5.0,93,0.01,,---,0.07,VWS V14.01,2013-03-06 12:40:00,
2013-03-06 07:45:00,36.5,34.7,30.11,SE,140,10.0,10.0,93,0.01,,---,0.07,VWS V14.01,2013-03-06 12:45:00,
2013-03-06 07:50:00,36.5,34.7,30.11,ESE,106,12.0,13.0,93,0.01,,---,0.07,VWS V14.01,2013-03-06 12:50:00,
2013-03-06 07:55:00,36.5,34.4,30.11,SE,137,2.0,12.0,92,0.02,,---,0.08,VWS V14.01,2013-03-06 12:55:00,
2013-03-06 08:00:00,36.5,34.4,30.11,East,86,1.0,7.0,92,0.02,,---,0.08,VWS V14.01,2013-03-06 13:00:00,
2013-03-06 08:05:00,36.6,34.2,30.10,ESE,104,2.0,7.0,91,0.02,,---,0.08,VWS V14.01,2013-03-06 13:05:00,
2013-03-06 08:10:00,36.7,34.3,30.10,South,169,6.0,12.0,91,0.02,,---,0.08,VWS V14.01,2013-03-06 13:10:00,
2013-03-06 08:15:00,36.9,34.2,30.10,NE,40,4.0,12.0,90,0.02,,---,0.08,VWS V14.01,2013-03-06 13:15:00,
2013-03-06 08:20:00,37.1,34.2,30.10,SSE,152,3.0,10.0,89,0.02,,---,0.08,VWS V14.01,2013-03-06 13:20:00,
2013-03-06 08:25:00,37.3,34.1,30.10,ESE,106,2.0,9.0,88,0.01,,---,0.08,VWS V14.01,2013-03-06 13:25:00,
2013-03-06 08:30:00,37.5,34.0,30.10,SE,142,7.0,10.0,87,0.01,,---,0.08,VWS V14.01,2013-03-06 13:30:00,
2013-03-06 08:35:00,37.7,34.2,30.10,ESE,115,3.0,7.0,87,0.01,,---,0.08,VWS V14.01,2013-03-06 13:35:00,
2013-03-06 08:40:00,37.6,33.8,30.10,East,98,4.0,11.0,86,0.01,,---,0.08,VWS V14.01,2013-03-06 13:40:00,
2013-03-06 08:45:00,37.6,33.5,30.10,East,80,1.0,9.0,85,0.01,,---,0.08,VWS V14.01,2013-03-06 13:45:00,
2013-03-06 08:50:00,37.6,33.5,30.10,SE,138,5.0,7.0,85,0.01,,---,0.08,VWS V14.01,2013-03-06 13:50:00,
2013-03-06 08:55:00,37.6,33.5,30.10,East,100,8.0,9.0,85,0.01,,---,0.08,VWS V14.01,2013-03-06 13:55:00,
2013-03-06 09:00:00,37.7,33.0,30.10,SE,137,0.0,11.0,83,0.00,,---,0.08,VWS V14.01,2013-03-06 14:00:00,
2013-03-06 09:05:00,37.7,32.7,30.10,SSE,158,6.0,12.0,82,0.00,,---,0.08,VWS V14.01,2013-03-06 14:05:00,
2013-03-06 09:10:00,37.8,32.5,30.10,East,101,6.0,13.0,81,0.00,,---,0.08,VWS V14.01,2013-03-06 14:10:00,
2013-03-06 09:15:00,37.8,32.5,30.10,SSE,152,4.0,10.0,81,0.00,,---,0.08,VWS V14.01,2013-03-06 14:15:00,
2013-03-06 09:20:00,37.6,32.6,30.10,SSE,152,6.0,13.0,82,0.00,,---,0.08,VWS V14.01,2013-03-06 14:20:00,
2013-03-06 09:25:00,37.5,32.5,30.11,SE,137,5.0,9.0,82,0.00,,---,0.08,VWS V14.01,2013-03-06 14:25:00,
2013-03-06 09:30:00,37.5,32.5,30.11,SE,132,2.0,7.0,82,0.00,,---,0.08,VWS V14.01,2013-03-06 14:30:00,
2013-03-06 09:35:00,37.6,32.6,30.11,SE,129,4.0,11.0,82,0.00,,---,0.08,VWS V14.01,2013-03-06 14:35:00,
2013-03-06 09:40:00,37.7,32.7,30.11,SE,136,4.0,7.0,82,0.00,,---,0.08,VWS V14.01,2013-03-06 14:40:00,
2013-03-06 09:45:00,37.7,32.7,30.12,ENE,78,4.0,9.0,82,0.00,,---,0.08,VWS V14.01,2013-03-06 14:45:00,
2013-03-06 09:50:00,37.8,32.8,30.12,South,172,2.0,8.0,82,0.00,,---,0.08,VWS V14.01,2013-03-06 14:50:00,
2013-03-06 09:55:00,37.8,32.8,30.12,ESE,119,3.0,6.0,82,0.00,,---,0.08,VWS V14.01,2013-03-06 14:55:00,
2013-03-06 10:00:00,37.9,32.9,30.12,ESE,121,4.0,7.0,82,0.00,,---,0.08,VWS V14.01,2013-03-06 15:00:00,
2013-03-06 10:05:00,37.8,32.8,30.12,South,190,3.0,8.0,82,0.00,,---,0.08,VWS V14.01,2013-03-06 15:05:00,
2013-03-06 10:10:00,37.9,33.2,30.12,East,81,1.0,7.0,83,0.00,,---,0.08,VWS V14.01,2013-03-06 15:10:00,
2013-03-06 10:15:00,37.9,32.9,30.12,SSE,150,3.0,13.0,82,0.00,,---,0.08,VWS V14.01,2013-03-06 15:15:00,
2013-03-06 10:20:00,37.8,32.8,30.12,East,97,3.0,6.0,82,0.00,,---,0.08,VWS V14.01,2013-03-06 15:20:00,
2013-03-06 10:25:00,37.8,33.4,30.11,NE,50,6.0,6.0,84,0.00,,---,0.08,VWS V14.01,2013-03-06 15:25:00,
2013-03-06 10:30:00,37.7,33.3,30.11,ESE,117,1.0,7.0,84,0.00,,---,0.08,VWS V14.01,2013-03-06 15:30:00,
2013-03-06 10:35:00,37.7,32.7,30.11,SSE,161,5.0,9.0,82,0.00,,---,0.08,VWS V14.01,2013-03-06 15:35:00,
2013-03-06 10:40:00,37.7,32.4,30.10,ENE,77,7.0,9.0,81,0.00,,---,0.08,VWS V14.01,2013-03-06 15:40:00,
2013-03-06 10:45:00,37.8,32.2,30.11,ESE,106,5.0,13.0,80,0.00,,---,0.08,VWS V14.01,2013-03-06 15:45:00,
2013-03-06 10:50:00,37.9,31.7,30.10,ESE,118,5.0,16.0,78,0.00,,---,0.08,VWS V14.01,2013-03-06 15:50:00,
2013-03-06 10:55:00,37.9,31.0,30.10,SE,138,3.0,10.0,76,0.00,,---,0.08,VWS V14.01,2013-03-06 15:55:00,
2013-03-06 11:00:00,38.0,30.8,30.10,NW,319,2.0,13.0,75,0.00,,---,0.08,VWS V14.01,2013-03-06 16:00:00,
2013-03-06 11:05:00,38.3,30.8,30.09,SE,126,3.0,10.0,74,0.00,,---,0.08,VWS V14.01,2013-03-06 16:05:00,
2013-03-06 11:10:00,38.4,30.9,30.09,ESE,104,4.0,12.0,74,0.00,,---,0.08,VWS V14.01,2013-03-06 16:10:00,
2013-03-06 11:15:00,38.4,31.2,30.10,SE,133,5.0,10.0,75,0.00,,---,0.08,VWS V14.01,2013-03-06 16:15:00,
2013-03-06 11:20:00,38.5,31.0,30.10,ESE,106,3.0,13.0,74,0.00,,---,0.08,VWS V14.01,2013-03-06 16:20:00,
2013-03-06 11:25:00,38.6,31.4,30.10,ESE,111,2.0,10.0,75,0.00,,---,0.08,VWS V14.01,2013-03-06 16:25:00,
2013-03-06 11:30:00,38.6,31.7,30.09,SSE,156,3.0,6.0,76,0.00,,---,0.08,VWS V14.01,2013-03-06 16:30:00,
2013-03-06 11:35:00,38.7,32.1,30.09,ESE,123,0.0,6.0,77,0.00,,---,0.08,VWS V14.01,2013-03-06 16:35:00,
2013-03-06 11:40:00,38.8,31.6,30.09,East,96,7.0,10.0,75,0.00,,---,0.08,VWS V14.01,2013-03-06 16:40:00,
2013-03-06 11:45:00,38.9,31.3,30.09,WSW,244,2.0,9.0,74,0.00,,---,0.08,VWS V14.01,2013-03-06 16:45:00,
2013-03-06 11:50:00,39.0,31.1,30.09,ESE,102,4.0,11.0,73,0.00,,---,0.08,VWS V14.01,2013-03-06 16:50:00,
2013-03-06 11:55:00,39.1,31.5,30.09,SSE,150,2.0,11.0,74,0.00,,---,0.08,VWS V14.01,2013-03-06 16:55:00,
2013-03-06 12:00:00,39.1,31.2,30.09,SSE,150,2.0,7.0,73,0.00,,---,0.08,VWS V14.01,2013-03-06 17:00:00,
2013-03-06 12:05:00,39.2,31.0,30.09,ENE,73,5.0,13.0,72,0.00,,---,0.08,VWS V14.01,2013-03-06 17:05:00,
2013-03-06 12:10:00,39.0,30.8,30.09,East,91,7.0,13.0,72,0.00,,---,0.08,VWS V14.01,2013-03-06 17:10:00,
2013-03-06 12:15:00,39.0,31.1,30.09,ESE,117,3.0,7.0,73,0.00,,---,0.08,VWS V14.01,2013-03-06 17:15:00,
2013-03-06 12:20:00,39.1,31.9,30.09,SSE,152,4.0,15.0,75,0.00,,---,0.08,VWS V14.01,2013-03-06 17:20:00,
2013-03-06 12:25:00,39.3,31.7,30.09,ESE,113,5.0,10.0,74,0.00,,---,0.08,VWS V14.01,2013-03-06 17:25:00,
2013-03-06 12:30:00,39.4,31.8,30.09,SE,138,3.0,7.0,74,0.00,,---,0.08,VWS V14.01,2013-03-06 17:30:00,
2013-03-06 12:35:00,39.6,32.0,30.09,SSE,161,7.0,7.0,74,0.00,,---,0.08,VWS V14.01,2013-03-06 17:35:00,
2013-03-06 12:40:00,39.5,31.9,30.09,ESE,102,3.0,11.0,74,0.00,,---,0.08,VWS V14.01,2013-03-06 17:40:00,
2013-03-06 12:45:00,39.0,32.4,30.10,SE,124,4.0,12.0,77,0.00,,---,0.08,VWS V14.01,2013-03-06 17:45:00,
2013-03-06 12:50:00,38.0,32.7,30.10,SE,138,4.0,9.0,81,0.00,,---,0.08,VWS V14.01,2013-03-06 17:50:00,
2013-03-06 12:55:00,37.9,32.9,30.09,South,186,2.0,11.0,82,0.00,,---,0.08,VWS V14.01,2013-03-06 17:55:00,
2013-03-06 13:00:00,38.2,32.9,30.09,SE,140,3.0,11.0,81,0.00,,---,0.08,VWS V14.01,2013-03-06 18:00:00,
2013-03-06 13:05:00,38.7,33.7,30.09,South,185,3.0,8.0,82,0.00,,---,0.08,VWS V14.01,2013-03-06 18:05:00,
2013-03-06 13:10:00,38.3,33.3,30.09,South,169,4.0,10.0,82,0.00,,---,0.08,VWS V14.01,2013-03-06 18:10:00,
2013-03-06 13:15:00,38.2,33.2,30.09,South,170,6.0,16.0,82,0.00,,---,0.08,VWS V14.01,2013-03-06 18:15:00,
2013-03-06 13:20:00,38.0,33.6,30.09,ESE,102,3.0,6.0,84,0.00,,---,0.08,VWS V14.01,2013-03-06 18:20:00,
2013-03-06 13:25:00,37.7,33.6,30.09,ESE,120,4.0,11.0,85,0.00,,---,0.08,VWS V14.01,2013-03-06 18:25:00,
2013-03-06 13:30:00,37.1,33.3,30.09,SE,131,1.0,12.0,86,0.00,,---,0.08,VWS V14.01,2013-03-06 18:30:00,
2013-03-06 13:35:00,36.8,33.6,30.08,SE,134,3.0,9.0,88,0.01,,---,0.09,VWS V14.01,2013-03-06 18:35:00,
2013-03-06 13:40:00,37.1,34.2,30.08,SSE,156,2.0,6.0,89,0.01,,---,0.09,VWS V14.01,2013-03-06 18:40:00,
2013-03-06 13:45:00,37.3,34.1,30.08,SE,128,3.0,14.0,88,0.01,,---,0.09,VWS V14.01,2013-03-06 18:45:00,
2013-03-06 13:50:00,37.5,34.0,30.08,ESE,116,5.0,9.0,87,0.01,,---,0.09,VWS V14.01,2013-03-06 18:50:00,
2013-03-06 13:55:00,37.6,33.8,30.08,ESE,123,1.0,9.0,86,0.01,,---,0.09,VWS V14.01,2013-03-06 18:55:00,
2013-03-06 14:00:00,37.4,33.6,30.08,SSE,159,1.0,12.0,86,0.01,,---,0.09,VWS V14.01,2013-03-06 19:00:00,
2013-03-06 14:05:00,37.4,33.9,30.08,SE,125,2.0,6.0,87,0.01,,---,0.09,VWS V14.01,2013-03-06 19:05:00,
2013-03-06 14:10:00,37.5,33.7,30.08,ESE,117,6.0,11.0,86,0.01,,---,0.09,VWS V14.01,2013-03-06 19:10:00,
2013-03-06 14:15:00,37.8,33.7,30.08,SSE,152,4.0,11.0,85,0.01,,---,0.09,VWS V14.01,2013-03-06 19:15:00,
2013-03-06 14:20:00,37.9,33.5,30.08,East,96,3.0,12.0,84,0.01,,---,0.09,VWS V14.01,2013-03-06 19:20:00,
2013-03-06 14:25:00,37.9,33.5,30.08,NNW,328,6.0,7.0,84,0.01,,---,0.09,VWS V14.01,2013-03-06 19:25:00,
2013-03-06 14:30:00,37.8,33.4,30.08,SE,124,3.0,11.0,84,0.01,,---,0.09,VWS V14.01,2013-03-06 19:30:00,
2013-03-06 14:35:00,37.6,33.5,30.08,East,79,3.0,14.0,85,0.01,,---,0.09,VWS V14.01,2013-03-06 19:35:00,
2013-03-06 14:40:00,37.3,33.2,30.09,SSE,158,5.0,16.0,85,0.00,,---,0.09,VWS V14.01,2013-03-06 19:40:00,
2013-03-06 14:45:00,37.0,33.2,30.08,East,84,2.0,11.0,86,0.00,,---,0.09,VWS V14.01,2013-03-06 19:45:00,
2013-03-06 14:50:00,37.0,33.2,30.09,SSE,165,5.0,13.0,86,0.00,,---,0.09,VWS V14.01,2013-03-06 19:50:00,
2013-03-06 14:55:00,36.9,33.1,30.08,West,264,2.0,7.0,86,0.00,,---,0.09,VWS V14.01,2013-03-06 19:55:00,
2013-03-06 15:00:00,37.1,33.3,30.08,SSE,163,7.0,11.0,86,0.00,,---,0.09,VWS V14.01,2013-03-06 20:00:00,
2013-03-06 15:05:00,37.0,32.9,30.08,ESE,121,2.0,7.0,85,0.00,,---,0.09,VWS V14.01,2013-03-06 20:05:00,
2013-03-06 15:10:00,37.1,33.0,30.08,East,98,2.0,9.0,85,0.00,,---,0.09,VWS V14.01,2013-03-06 20:10:00,
2013-03-06 15:15:00,37.1,32.7,30.08,ESE,123,1.0,8.0,84,0.00,,---,0.09,VWS V14.01,2013-03-06 20:15:00,
2013-03-06 15:20:00,37.3,32.6,30.08,NNE,30,5.0,11.0,83,0.00,,---,0.09,VWS V14.01,2013-03-06 20:20:00,
2013-03-06 15:25:00,36.8,32.7,30.08,ESE,114,5.0,11.0,85,0.00,,---,0.09,VWS V14.01,2013-03-06 20:25:00,
2013-03-06 15:30:00,36.3,32.5,30.08,ESE,113,3.0,13.0,86,0.00,,---,0.09,VWS V14.01,2013-03-06 20:30:00,
2013-03-06 15:35:00,35.9,32.7,30.08,ESE,107,2.0,14.0,88,0.00,,---,0.09,VWS V14.01,2013-03-06 20:35:00,
2013-03-06 15:40:00,35.6,32.7,30.08,ESE,120,1.0,5.0,89,0.00,,---,0.09,VWS V14.01,2013-03-06 20:40:00,
2013-03-06 15:45:00,35.5,32.3,30.08,ESE,122,5.0,10.0,88,0.00,,---,0.09,VWS V14.01,2013-03-06 20:45:00,
2013-03-06 15:50:00,35.6,32.7,30.08,SE,130,2.0,9.0,89,0.00,,---,0.09,VWS V14.01,2013-03-06 20:50:00,
2013-03-06 15:55:00,35.7,32.5,30.08,SSE,166,4.0,6.0,88,0.00,,---,0.09,VWS V14.01,2013-03-06 20:55:00,
2013-03-06 16:00:00,35.8,32.3,30.09,ESE,116,3.0,11.0,87,0.00,,---,0.09,VWS V14.01,2013-03-06 21:00:00,
2013-03-06 16:05:00,35.6,32.1,30.08,SSE,158,5.0,12.0,87,0.00,,---,0.09,VWS V14.01,2013-03-06 21:05:00,
2013-03-06 16:10:00,35.5,32.3,30.08,SSE,148,0.0,7.0,88,0.00,,---,0.09,VWS V14.01,2013-03-06 21:10:00,
2013-03-06 16:15:00,35.5,32.3,30.09,North,358,5.0,10.0,88,0.00,,---,0.09,VWS V14.01,2013-03-06 21:15:00,
2013-03-06 16:20:00,35.5,32.0,30.09,ESE,111,4.0,6.0,87,0.00,,---,0.09,VWS V14.01,2013-03-06 21:20:00,
2013-03-06 16:25:00,35.5,32.0,30.09,East,87,3.0,6.0,87,0.00,,---,0.09,VWS V14.01,2013-03-06 21:25:00,
2013-03-06 16:30:00,35.6,31.8,30.09,NW,314,1.0,9.0,86,0.00,,---,0.09,VWS V14.01,2013-03-06 21:30:00,
2013-03-06 16:35:00,35.6,32.1,30.08,ESE,114,2.0,8.0,87,0.00,,---,0.09,VWS V14.01,2013-03-06 21:35:00,
2013-03-06 16:40:00,35.5,32.0,30.08,ESE,123,3.0,6.0,87,0.00,,---,0.09,VWS V14.01,2013-03-06 21:40:00,
2013-03-06 16:45:00,35.3,31.8,30.09,SE,135,2.0,7.0,87,0.00,,---,0.09,VWS V14.01,2013-03-06 21:45:00,
2013-03-06 16:50:00,35.3,32.1,30.08,ESE,112,1.0,7.0,88,0.00,,---,0.09,VWS V14.01,2013-03-06 21:50:00,
2013-03-06 16:55:00,35.3,31.8,30.09,ESE,112,2.0,6.0,87,0.00,,---,0.09,VWS V14.01,2013-03-06 21:55:00,
2013-03-06 17:00:00,35.4,31.9,30.09,East,90,1.0,7.0,87,0.00,,---,0.09,VWS V14.01,2013-03-06 22:00:00,
2013-03-06 17:05:00,35.3,31.8,30.10,ESE,112,1.0,5.0,87,0.00,,---,0.09,VWS V14.01,2013-03-06 22:05:00,
2013-03-06 17:10:00,35.2,32.0,30.10,ESE,112,2.0,5.0,88,0.00,,---,0.09,VWS V14.01,2013-03-06 22:10:00,
2013-03-06 17:15:00,35.2,31.7,30.10,SE,135,3.0,10.0,87,0.00,,---,0.09,VWS V14.01,2013-03-06 22:15:00,
2013-03-06 17:20:00,35.2,31.7,30.10,ESE,112,3.0,9.0,87,0.00,,---,0.09,VWS V14.01,2013-03-06 22:20:00,
2013-03-06 17:25:00,35.1,31.6,30.10,SSE,158,1.0,4.0,87,0.00,,---,0.09,VWS V14.01,2013-03-06 22:25:00,
2013-03-06 17:30:00,35.1,31.6,30.10,ESE,112,3.0,10.0,87,0.00,,---,0.09,VWS V14.01,2013-03-06 22:30:00,
2013-03-06 17:35:00,35.2,31.4,30.10,ESE,112,1.0,5.0,86,0.00,,---,0.09,VWS V14.01,2013-03-06 22:35:00,
2013-03-06 17:40:00,35.3,31.5,30.10,NNE,22,3.0,15.0,86,0.00,,---,0.09,VWS V14.01,2013-03-06 22:40:00,
2013-03-06 17:45:00,35.3,31.5,30.11,SE,135,1.0,7.0,86,0.00,,---,0.09,VWS V14.01,2013-03-06 22:45:00,
2013-03-06 17:50:00,35.2,33.1,30.10,ESE,112,2.0,10.0,92,0.00,,---,0.09,VWS V14.01,2013-03-06 22:50:00,
2013-03-06 17:55:00,35.2,31.7,30.10,ESE,112,2.0,11.0,87,0.00,,---,0.09,VWS V14.01,2013-03-06 22:55:00,
2013-03-06 18:00:00,35.1,31.6,30.10,SE,135,2.0,10.0,87,0.00,,---,0.09,VWS V14.01,2013-03-06 23:00:00,
2013-03-06 18:05:00,35.0,31.8,30.10,ESE,112,2.0,5.0,88,0.00,,---,0.09,VWS V14.01,2013-03-06 23:05:00,
2013-03-06 18:10:00,34.8,31.9,30.10,SE,135,2.0,10.0,89,0.00,,---,0.09,VWS V14.01,2013-03-06 23:10:00,
2013-03-06 18:15:00,34.6,32.0,30.10,NE,45,3.0,7.0,90,0.00,,---,0.09,VWS V14.01,2013-03-06 23:15:00,
2013-03-06 18:20:00,34.4,31.8,30.09,SE,135,2.0,7.0,90,0.00,,---,0.09,VWS V14.01,2013-03-06 23:20:00,
2013-03-06 18:25:00,34.1,31.8,30.09,ESE,112,2.0,7.0,91,0.01,,---,0.10,VWS V14.01,2013-03-06 23:25:00,
2013-03-06 18:30:00,34.0,31.6,30.09,SE,135,2.0,6.0,91,0.01,,---,0.10,VWS V14.01,2013-03-06 23:30:00,
2013-03-06 18:35:00,34.0,31.9,30.09,SE,135,2.0,5.0,92,0.01,,---,0.10,VWS V14.01,2013-03-06 23:35:00,
2013-03-06 18:40:00,34.3,32.0,30.11,NE,47,2.0,8.0,91,0.01,,---,0.11,VWS V14.01,2013-03-06 23:40:00,
2013-03-06 18:45:00,34.4,31.8,30.10,SSW,199,1.0,11.0,90,0.01,,---,0.11,VWS V14.01,2013-03-06 23:45:00,
2013-03-06 18:49:00,34.0,31.9,30.09,East,90,2.0,7.0,92,0.01,,---,0.10,VWS V14.01,2013-03-06 23:49:00,
2013-03-06 18:50:00,34.5,31.6,30.10,ESE,105,0.0,7.0,89,0.02,,---,0.12,VWS V14.01,2013-03-06 23:50:00,
2013-03-06 18:55:00,34.2,31.9,30.09,East,80,0.0,7.0,91,0.01,,---,0.10,VWS V14.01,2013-03-06 23:55:00,
2013-03-06 19:00:00,34.3,32.0,30.10,SE,129,3.0,14.0,91,0.01,,---,0.10,VWS V14.01,2013-03-07 00:00:00,
2013-03-06 19:05:00,34.2,31.9,30.10,SE,142,3.0,5.0,91,0.01,,---,0.10,VWS V14.01,2013-03-07 00:05:00,
2013-03-06 19:10:00,34.0,31.6,30.10,SSE,164,0.0,4.0,91,0.01,,---,0.10,VWS V14.01,2013-03-07 00:10:00,
2013-03-06 19:15:00,33.9,31.8,30.10,SE,143,3.0,6.0,92,0.02,,---,0.11,VWS V14.01,2013-03-07 00:15:00,
2013-03-06 19:20:00,33.9,31.8,30.10,ESE,117,0.0,10.0,92,0.02,,---,0.11,VWS V14.01,2013-03-07 00:20:00,
2013-03-06 19:25:00,33.9,31.8,30.10,East,96,1.0,6.0,92,0.02,,---,0.11,VWS V14.01,2013-03-07 00:25:00,
2013-03-06 19:30:00,34.0,31.9,30.10,SE,125,0.0,5.0,92,0.01,,---,0.11,VWS V14.01,2013-03-07 00:30:00,
2013-03-06 19:35:00,34.0,31.9,30.10,ESE,111,0.0,11.0,92,0.01,,---,0.11,VWS V14.01,2013-03-07 00:35:00,
2013-03-06 19:40:00,34.3,32.0,30.11,NE,47,2.0,8.0,91,0.01,,---,0.11,VWS V14.01,2013-03-07 00:40:00,
2013-03-06 19:45:00,34.4,31.8,30.10,SSW,199,1.0,11.0,90,0.01,,---,0.11,VWS V14.01,2013-03-07 00:45:00,
2013-03-06 19:50:00,34.5,31.6,30.10,ESE,105,0.0,7.0,89,0.02,,---,0.12,VWS V14.01,2013-03-07 00:50:00,
2013-03-06 19:55:00,34.5,31.6,30.10,ESE,104,0.0,12.0,89,0.02,,---,0.12,VWS V14.01,2013-03-07 00:55:00,
2013-03-06 20:00:00,34.6,31.1,30.10,ESE,120,5.0,7.0,87,0.02,,---,0.12,VWS V14.01,2013-03-07 01:00:00,
2013-03-06 20:05:00,34.8,31.0,30.10,NE,51,3.0,6.0,86,0.02,,---,0.12,VWS V14.01,2013-03-07 01:05:00,
2013-03-06 20:10:00,35.0,31.0,30.10,SE,131,4.0,6.0,85,0.02,,---,0.12,VWS V14.01,2013-03-07 01:10:00,
2013-03-06 20:15:00,35.1,31.0,30.10,SE,130,6.0,7.0,85,0.02,,---,0.12,VWS V14.01,2013-03-07 01:15:00,
2013-03-06 20:20:00,35.3,31.0,30.09,East,81,0.0,12.0,84,0.01,,---,0.12,VWS V14.01,2013-03-07 01:20:00,
2013-03-06 20:25:00,35.4,30.8,30.10,ENE,73,1.0,11.0,83,0.01,,---,0.12,VWS V14.01,2013-03-07 01:25:00,
2013-03-06 20:30:00,35.5,30.9,30.09,ENE,69,5.0,13.0,83,0.01,,---,0.12,VWS V14.01,2013-03-07 01:30:00,
2013-03-06 20:35:00,35.5,30.9,30.09,ENE,77,0.0,5.0,83,0.01,,---,0.12,VWS V14.01,2013-03-07 01:35:00,
2013-03-06 20:40:00,35.4,30.5,30.09,SE,138,4.0,11.0,82,0.01,,---,0.12,VWS V14.01,2013-03-07 01:40:00,
2013-03-06 20:45:00,35.5,30.6,30.09,ENE,68,3.0,5.0,82,0.01,,---,0.12,VWS V14.01,2013-03-07 01:45:00,
2013-03-06 20:50:00,35.6,30.0,30.09,South,181,1.0,13.0,80,0.01,,---,0.12,VWS V14.01,2013-03-07 01:50:00,
2013-03-06 20:55:00,35.7,30.5,30.09,ESE,109,2.0,10.0,81,0.00,,---,0.12,VWS V14.01,2013-03-07 01:55:00,
2013-03-06 21:00:00,35.4,30.8,30.10,NE,46,3.0,9.0,83,0.00,,---,0.12,VWS V14.01,2013-03-07 02:00:00,
2013-03-06 21:05:00,34.9,30.3,30.09,SE,133,3.0,8.0,83,0.00,,---,0.12,VWS V14.01,2013-03-07 02:05:00,
2013-03-06 21:10:00,34.7,29.8,30.09,ESE,102,2.0,7.0,82,0.00,,---,0.12,VWS V14.01,2013-03-07 02:10:00,
2013-03-06 21:15:00,34.6,29.7,30.09,North,360,4.0,5.0,82,0.00,,---,0.12,VWS V14.01,2013-03-07 02:15:00,
2013-03-06 21:20:00,34.7,29.8,30.08,SSE,150,0.0,5.0,82,0.00,,---,0.12,VWS V14.01,2013-03-07 02:20:00,
2013-03-06 21:25:00,34.7,29.8,30.08,SSW,192,2.0,5.0,82,0.00,,---,0.12,VWS V14.01,2013-03-07 02:25:00,
2013-03-06 21:30:00,34.7,30.1,30.08,SSE,154,7.0,7.0,83,0.00,,---,0.12,VWS V14.01,2013-03-07 02:30:00,
2013-03-06 21:35:00,35.1,30.8,30.08,NNE,21,6.0,6.0,84,0.00,,---,0.12,VWS V14.01,2013-03-07 02:35:00,
2013-03-06 21:40:00,35.0,30.1,30.08,NNE,25,5.0,6.0,82,0.00,,---,0.12,VWS V14.01,2013-03-07 02:40:00,
2013-03-06 21:45:00,35.1,29.9,30.08,East,98,2.0,7.0,81,0.00,,---,0.12,VWS V14.01,2013-03-07 02:45:00,
2013-03-06 21:50:00,34.2,31.0,30.08,NE,54,0.0,4.0,88,0.00,,---,0.12,VWS V14.01,2013-03-07 02:50:00,
2013-03-06 21:55:00,35.2,30.0,30.08,SE,134,11.0,13.0,81,0.00,,---,0.12,VWS V14.01,2013-03-07 02:55:00,
2013-03-06 22:00:00,35.2,30.0,30.08,SSE,163,7.0,11.0,81,0.00,,---,0.12,VWS V14.01,2013-03-07 03:00:00,
2013-03-06 22:05:00,34.2,30.7,30.08,NE,52,4.0,9.0,87,0.00,,---,0.12,VWS V14.01,2013-03-07 03:05:00,
2013-03-06 22:10:00,35.3,30.4,30.08,ESE,118,0.0,7.0,82,0.00,,---,0.12,VWS V14.01,2013-03-07 03:10:00,
2013-03-06 22:15:00,35.2,30.3,30.08,SSE,152,7.0,11.0,82,0.00,,---,0.12,VWS V14.01,2013-03-07 03:15:00,
2013-03-06 22:20:00,35.2,30.0,30.08,SSE,148,0.0,10.0,81,0.00,,---,0.12,VWS V14.01,2013-03-07 03:20:00,
2013-03-06 22:25:00,35.3,30.4,30.08,NE,46,4.0,11.0,82,0.00,,---,0.12,VWS V14.01,2013-03-07 03:25:00,
2013-03-06 22:30:00,35.2,30.3,30.08,NNE,30,1.0,10.0,82,0.00,,---,0.12,VWS V14.01,2013-03-07 03:30:00,
2013-03-06 22:35:00,35.1,30.8,30.08,NNE,21,6.0,6.0,84,0.00,,---,0.12,VWS V14.01,2013-03-07 03:35:00,
2013-03-06 22:40:00,34.7,30.7,30.08,SE,134,8.0,10.0,85,0.00,,---,0.12,VWS V14.01,2013-03-07 03:40:00,
2013-03-06 22:45:00,34.4,30.6,30.08,ESE,106,1.0,11.0,86,0.00,,---,0.12,VWS V14.01,2013-03-07 03:45:00,
2013-03-06 22:50:00,34.2,31.0,30.08,NE,54,0.0,4.0,88,0.00,,---,0.12,VWS V14.01,2013-03-07 03:50:00,
2013-03-06 22:55:00,34.1,30.9,30.08,East,93,2.0,6.0,88,0.00,,---,0.12,VWS V14.01,2013-03-07 03:55:00,
2013-03-06 23:00:00,34.1,30.9,30.08,East,90,5.0,6.0,88,0.00,,---,0.12,VWS V14.01,2013-03-07 04:00:00,
2013-03-06 23:05:00,34.2,30.7,30.08,NE,52,4.0,9.0,87,0.00,,---,0.12,VWS V14.01,2013-03-07 04:05:00,
2013-03-06 23:10:00,34.4,30.4,30.08,North,354,4.0,17.0,85,0.00,,---,0.12,VWS V14.01,2013-03-07 04:10:00,
2013-03-06 23:15:00,34.4,30.6,30.08,SE,146,2.0,7.0,86,0.00,,---,0.12,VWS V14.01,2013-03-07 04:15:00,
2013-03-06 23:20:00,34.3,30.6,30.08,NE,46,1.0,6.0,86,0.00,,---,0.12,VWS V14.01,2013-03-07 04:20:00,
2013-03-06 23:25:00,34.3,30.6,30.08,East,84,5.0,6.0,86,0.00,,---,0.12,VWS V14.01,2013-03-07 04:25:00,
2013-03-06 23:30:00,34.4,30.4,30.08,SE,136,0.0,5.0,85,0.00,,---,0.12,VWS V14.01,2013-03-07 04:30:00,
2013-03-06 23:35:00,34.4,30.4,30.08,ESE,115,0.0,6.0,85,0.00,,---,0.12,VWS V14.01,2013-03-07 04:35:00,
2013-03-06 23:40:00,34.4,30.4,30.08,ESE,113,5.0,5.0,85,0.00,,---,0.12,VWS V14.01,2013-03-07 04:40:00,
2013-03-06 23:45:00,34.4,30.1,30.08,NNE,30,0.0,11.0,84,0.00,,---,0.12,VWS V14.01,2013-03-07 04:45:00,
2013-03-06 23:50:00,34.5,29.6,30.08,East,92,3.0,9.0,82,0.00,,---,0.12,VWS V14.01,2013-03-07 04:50:00,
2013-03-06 23:55:00,34.7,29.5,30.07,SE,136,2.0,9.0,81,0.00,,---,0.12,VWS V14.01,2013-03-07 04:55:00,